Location: Bruderhein
(53.8035°N, 112.9265°W)
Time: 11:05:15
(UTC+00:00)

Meteor 1-19 Rocket - Pass Details

Date: 29 November 2023
Orbit: 806 x 928 km, 81.2° (Epoch: 04 March)

Event Time Altitude Azimuth Distance (km) Brightness Sun altitude
Rises 14:00:43 0° 348° (NNW) 3,583 7.1 -11.4°
Reaches altitude 10° 14:03:25 10° 356° (N) 2,642 6.5 -11.1°
Maximum altitude 14:09:02 38° 64° (ENE) 1,384 5.7 -10.3°
Drops below altitude 10° 14:14:36 10° 132° (SE) 2,618 8.1 -9.6°
Sets 14:17:15 0° 140° (SE) 3,546 8.7 -9.2°
